THOR ABLESTAR DEB, 123

Orbit data source: Space-Track

THOR ABLESTAR DEB, 123 is space debris in LEO originally from a launch on Thu, 29 Jun 1961 UTC launched from the Air Force Eastern Test Range (AFETR). Debris objects in space refer to the collection of defunct objects orbiting the Earth. Examples of debris include non-operational satellites, rocket bodies, and fragments generated from explosions, collisions, or faulty payload assembly.

Loading next visibility...
Identifier
123, 1961-015H
Orbit
LEO
Country
Flag of USUS
Related business
Manufacturer
Unknown
Mission
Spacecraft
Bus & Motor
Unknown
Mass
Unknown
Launch date (UTC)
1961-06-29 (64 years ago)
Launch vehicle
Unknown
Launch site
Air Force Eastern Test Range (AFETR)
Object type
Payload
Rocket body
Debris
Shape & HBR
Unknown
Radar Cross Section
Medium (>0.1 m² and <1 m²)

Expand to show TLE details & history
Last TLE update: 17 hours ago

TLE from 17 hours ago
0 THOR ABLESTAR DEB
1 00123U 61015H   25259.60932002  .00000795  00000-0  25874-3 0  9994
2 00123  66.6850  77.4866 0102495 112.1949 249.0068 14.41103770340100
Epoch: 2025-09-16T14:37Z
TLE epoch observation values (Epoch: 2025-09-16T14:37:25.249Z)
Latitude
-0.00004°
Longitude
-137.66578°
Altitude
783.816 km
Speed
7.448 km/s
True Right ascension
05h 09m 56s
True Declination
0° 00' 00"
Sunlit
Object was in daylight at epoch
Visualization orbit readout
Latitude
Unknown
Longitude
Unknown
Altitude
Unknown
Speed
Unknown
Apparent Right ascension
Unknown
Apparent Declination
Unknown
Sunlit
N/A
Visualization observer readout
Local Sidereal Time
00:51:19
Azimuth
Unknown
Elevation
Unknown
Doppler factor
Unknown
Orbital elements
Apogee altitude
826.315 km
Perigee altitude
680.129 km
Semi-major axis
7,131.359 km
Eccentricity
0.01025
Inclination
66.685°
RAAN
77.4866°
Arg. of periapsis
112.1949°
True anomaly
247.91533°
Mean anomaly
249.0068°
Eccentric anomaly
248.46056°
Mean motion
3.604 °/min
Orbital period
99.89 mins
BSTAR
0.00025874
Loading maneuver chart data...
Computing Atmospheric mass density...

Documentation

Showing up to 5 results
|